Regional Weather Roundup
Issued by NWS

Home | Current Version | Previous Version | Graphics & Text | Print | Product List | Glossary On
Versions: 1 2 3 4 5 6 7 8 9 10 11 12 13 14 15 16 17 18 19 20 21 22 23 24 25 26 27 28 29 30 31 32 33 34 35 36 37 38 39 40 41 42 43 44 45 46 47 48 49 50
000
ASUS43 KLSX 171057
RWRMO

WEATHER SUMMARY FOR MISSOURI
NATIONAL WEATHER SERVICE SPRINGFIELD MO
600 AM CDT THU AUG 17 2017

NOTE: "FAIR" INDICATES FEW OR NO CLOUDS BELOW 12,000 FEET WITH NO
       SIGNIFICANT WEATHER AND/OR OBSTRUCTIONS TO VISIBILITY.
       CURRENT SKY AND/OR WEATHER CONDITIONS ARE NOT AVAILABLE FOR
       CHILLICOTHE AND FARMINGTON.

MOZ001>031-035>038-043-044-053-054-171200-
...NORTHERN AND WESTERN MISSOURI...

CITY           SKY/WX    TMP DP  RH WIND       PRES   REMARKS
KANSAS CTY INT CLOUDY    65  63  93 W7        29.89R
LEE`S SUMMIT   CLOUDY    67  67 100 W5        29.91R
ST JOSEPH      CLEAR     64  63  96 NW5       29.89R FOG
CHILLICOTHE      N/A     68  67  96 CALM      29.87R

$$
MOZ066>068-077>081-088>096-101>105-171200-
...SOUTHWEST MISSOURI...

CITY           SKY/WX    TMP DP  RH WIND       PRES   REMARKS
SPRINGFIELD    CLOUDY    67  67 100 S7        29.93S
JOPLIN         CLOUDY    70  69  97 SW5       29.93S

$$
MOZ032>034-039>042-045>050-055>058-069>072-171200-
...CENTRAL MISSOURI...

CITY           SKY/WX    TMP DP  RH WIND       PRES   REMARKS
COLUMBIA       NOT AVBL
JEFFERSON CITY MOCLDY    70  69  97 S3        29.89R
ROLLA          PTCLDY    66  66 100 S9        29.93S
SEDALIA        CLOUDY    69  69 100 SW7       29.90R
WARRENSBURG    CLOUDY    68  66  94 SW5       29.89R

$$
MOZ051-052-059>065-171200-
...EAST CENTRAL MISSOURI...

CITY           SKY/WX    TMP DP  RH WIND       PRES   REMARKS
ST LOUIS INTL  CLOUDY    69  68  96 W8        29.89R

$$
MOZ072>076-082>087-097>100-106>115-171200-
...SOUTH CENTRAL AND SOUTHEAST MISSOURI...

CITY           SKY/WX    TMP DP  RH WIND       PRES   REMARKS
CAPE GIRARDEAU LGT RAIN  75  72  90 S7        29.90F
POPLAR BLUFF   HVY RAIN  74  74 100 S3        29.92R FOG
WEST PLAINS    CLOUDY    68  67  96 S6        29.97S

$$


USA.gov is the U.S. government's official web portal to all federal, state and local government web resources and services.